Flight Track Log - Related Links

Times and Time Zones

All times are in EDT time to prevent confusion due to time zone crossing. See the CTL15 flight status page for this flight to view local times or setup timezone preferences in your user account.

Time Position Orientation Groundspeed Altitude Reporting Facility
EDT Latitude Longitude Course Direction KTS km/h meters Rate Location/Type
Thu 19:37:23 39.6197 -84.1936 45° Northeast 128 237 640  Level Indianapolis Center
Thu 19:38:06 39.6383 -84.1692 45° Northeast 142 262 853 183 Climbing Indianapolis Center
Thu 19:39:13 39.6756 -84.1225 44° Northeast 170 315 975 239 Climbing Indianapolis Center
Thu 19:40:16 39.7061 -84.0833 45° Northeast 164 304 1,372 354 Climbing Indianapolis Center
Thu 19:41:17 39.7322 -84.0497 45° Northeast 125 232 1,707 297 Climbing Indianapolis Center
Thu 19:42:19 39.7617 -84.0117 45° Northeast 137 254 1,981 221 Climbing Indianapolis Center
Thu 19:43:21 39.7911 -83.9697 48° Northeast 148 274 2,164 109 Climbing Indianapolis Center
Thu 19:44:16 39.8294 -83.9197 45° Northeast 197 365 2,195 -15 Climbing Indianapolis Center
Thu 19:45:25 39.8694 -83.8664 46° Northeast 193 357 2,134 -16 Descending Indianapolis Center
Thu 19:46:12 39.9019 -83.8203 47° Northeast 201 372 2,164  Climbing Indianapolis Center
Thu 19:47:12 39.9414 -83.7708 44° Northeast 198 367 2,134 -24 Descending Indianapolis Center
Thu 19:47:28 39.9483 -83.7631 41° Northeast 198 367 2,134 60 Level Indianapolis Center
Thu 19:48:13 39.9806 -83.7214 45° Northeast 196 364 2,195 59 Climbing Indianapolis Center
Thu 19:48:30 39.9875 -83.7122 45° Northeast 197 365 2,195  Level Indianapolis Center
Thu 19:49:31 40.0272 -83.6611 45° Northeast 197 365 2,195 -35 Level Indianapolis Center
Thu 19:50:14 40.0572 -83.6194 47° Northeast 198 367 2,134 -30 Descending Indianapolis Center
Thu 19:50:33 40.0661 -83.6092 42° Northeast 197 365 2,164 -30 Climbing Indianapolis Center
Thu 19:51:15 40.0964 -83.5697 45° Northeast 197 365 2,103  Descending Indianapolis Center
Thu 19:51:35 40.1056 -83.5581 44° Northeast 197 365 2,164 30 Climbing Indianapolis Center
Thu 19:52:16 40.1381 -83.5175 44° Northeast 193 357 2,134 -30 Descending Indianapolis Center
Thu 19:52:36 40.1511 -83.5000 46° Northeast 195 360 2,134  Level Indianapolis Center
Thu 19:53:10 40.1703 -83.4750 45° Northeast 194 359 2,134  Level Indianapolis Center
Thu 19:53:38 40.1897 -83.4492 45° Northeast 194 359 2,134  Level Indianapolis Center
Thu 19:54:05 40.2053 -83.4275 47° Northeast 194 359 2,134 30 Level Indianapolis Center
Thu 19:54:40 40.2281 -83.3989 44° Northeast 194 359 2,164 27 Climbing Indianapolis Center
Thu 19:55:12 40.2492 -83.3700 46° Northeast 194 359 2,164  Level Indianapolis Center
Thu 19:55:41 40.2656 -83.3458 48° Northeast 194 359 2,164 -30 Level Indianapolis Center
Thu 19:56:12 40.2864 -83.3172 46° Northeast 194 359 2,134 -30 Descending Indianapolis Center
Thu 19:56:43 40.3031 -83.2956 45° Northeast 194 359 2,134 30 Level Indianapolis Center
Thu 19:57:13 40.3253 -83.2697 42° Northeast 191 354 2,164  Climbing Indianapolis Center
Thu 19:57:45 40.3431 -83.2469 44° Northeast 193 357 2,134 -60 Descending Indianapolis Center
Thu 19:58:14 40.3619 -83.2222 45° Northeast 193 357 2,103 59 Descending Indianapolis Center
Thu 19:58:47 40.3797 -83.1972 47° Northeast 190 352 2,195  Climbing Indianapolis Center
Thu 19:59:14 40.3992 -83.1719 45° Northeast 192 356 2,103 -90 Descending Indianapolis Center
Thu 19:59:48 40.4175 -83.1464 47° Northeast 192 356 2,103 19 Level Indianapolis Center
Thu 20:00:50 40.4553 -83.0972 45° Northeast 191 354 2,134 30 Climbing Indianapolis Center
Thu 20:01:52 40.4928 -83.0486 45° Northeast 189 349 2,164 15 Climbing Indianapolis Center
Thu 20:02:53 40.5347 -82.9867 48° Northeast 190 352 2,164  Level Indianapolis Center
Thu 20:03:55 40.5728 -82.9372 45° Northeast 191 354 2,164 -15 Level Indianapolis Center
Thu 20:04:57 40.6097 -82.8878 45° Northeast 190 352 2,134  Descending Indianapolis Center
Thu 20:05:58 40.6461 -82.8400 45° Northeast 186 344 2,164 15 Climbing Indianapolis Center
Thu 20:07:00 40.6817 -82.7953 44° Northeast 180 333 2,164  Level Indianapolis Center
Thu 20:08:02 40.7164 -82.7481 46° Northeast 177 328 2,164 -15 Level Indianapolis Center
Thu 20:09:04 40.7508 -82.6994 47° Northeast 179 332 2,134 -45 Descending Indianapolis Center
Thu 20:10:05 40.7858 -82.6511 46° Northeast 179 332 2,073 -60 Descending Indianapolis Center

Login

Don't have an account? Register now (free) for customized features, flight alerts, and more!